Weather Service Report


537 
ASUS45 KTFX 020304
RWRMT 
MONTANA REGIONAL WEATHER ROUNDUP
NATIONAL WEATHER SERVICE GREAT FALLS MT
900 PM MDT TUE SEP 01 2015

NOTE: "FAIR" INDICATES FEW OR NO CLOUDS BELOW 12000 FEET WITH NO
SIGNIFICANT WEATHER AND/OR OBSTRUCTIONS TO VISIBILITY.

MTZ001>007-043-020400-
WEST OF THE DIVIDE
  
CITY           SKY/WX    TMP DP  RH WIND       PRES   REMARKS
KALISPELL      PTCLDY    59  38  45 CALM      29.75R                  
MISSOULA       CLEAR     66  37  34 NW7       29.76R                  
BUTTE          PTCLDY    68  34  28 E5        29.88R                  
MULLAN PASS    PTCLDY    54  32  43 VRB3      29.92S                  
DEER LODGE       N/A     63  36  36 W8        29.85S                  
EUREKA           N/A     66  43  42 N3        29.77R                  
HAMILTON         N/A     66  48  52 SE5       29.76R                  
LIBBY            N/A     66  36  32 SE7       29.75S                  
$$

MTZ008-052>055-020400-
SOUTHWEST MONTANA
  
CITY           SKY/WX    TMP DP  RH WIND       PRES   REMARKS
BOZEMAN        MOCLDY    67  39  35 SE9       29.82S                  
DILLON         PTCLDY    73  27  18 S10       29.84R                  
W YELLOWSTONE  CLEAR     59  28  31 CALM      30.05R                  
$$

MTZ009-010-012-014-046-048-049-054-020400-
EAST SLOPES AND CENTRAL MONTANA
  
CITY           SKY/WX    TMP DP  RH WIND       PRES   REMARKS
CUT BANK       CLOUDY    65  31  28 W9        29.77R                  
GREAT FALLS    CLEAR     68  29  23 NW6       29.77R                  
HELENA         PTCLDY    73  35  25 S6        29.77R                  
$$

MTZ011-013-016-021-045-047-050-051-020400-
NORTH CENTRAL MONTANA
  
CITY           SKY/WX    TMP DP  RH WIND       PRES   REMARKS
HAVRE          CLEAR     67  36  31 E3        29.72R                  
LEWISTOWN      CLOUDY    65  40  39 VRB3      29.84R                  
N BAR RANCH      N/A     63  41  45 W5        29.90R                  
CHINOOK          N/A     70  39  32 E3        29.73R                  
FORT BENTON      N/A     75  30  19 SE5       29.75R                  
$$

MTZ017>020-022>027-061-062-020400-
NORTHEAST MONTANA
  
CITY           SKY/WX    TMP DP  RH WIND       PRES   REMARKS
GLASGOW        CLEAR     68  41  37 NE10      29.76R                  
JORDAN           N/A     70  34  26 NE3       29.78R                  
SIDNEY         CLEAR     70  41  35 N7        29.77R                  
WOLF POINT     CLEAR     64  44  48 E6        29.76R                  
PLENTYWOOD       N/A     73  41  31 N7        29.79R                  
POPLAR           N/A     75  36  23 N7        29.77R                  
$$

MTZ028>42-056>058-020400-
SOUTHCENTRAL AND SOUTHEAST MONTANA
  
CITY           SKY/WX    TMP DP  RH WIND       PRES   REMARKS
BAKER          CLEAR     66  47  50 SE3       29.83R                  
BILLINGS       PTCLDY    81  29  15 E12       29.80R                  
LIVINGSTON     CLEAR     79  24  13 S12       29.84R                  
MILES CITY     CLEAR     77  35  21 NE6       29.77R                  
FORSYTH          N/A     75  34  22 E5        29.77R                  
$$

REGIONAL REPORTS...DAKOTAS
  
CITY           SKY/WX    TMP DP  RH WIND       PRES   REMARKS
WILLISTON      CLEAR     77  36  22 NE6       29.78R                  
MINOT          CLEAR     72  57  59 SE7       29.77R                  
DICKINSON      CLEAR     71  56  58 SE9       29.80R                  
BISMARCK       PTCLDY    75  66  73 SE7       29.79R                  
GRAND FORKS    PTCLDY    72  56  57 SE9       29.83R                  
FARGO          CLEAR     76  66  71 SE8       29.84R                  
BUFFALO SD       N/A     76  54  46 E10       29.79R                  
RAPID CITY     CLEAR     62  56  80 CALM      29.87R                  
$$

REGIONAL REPORTS...WYOMING/IDAHO/WASHINGTON
  
CITY           SKY/WX    TMP DP  RH WIND       PRES   REMARKS
GILLETTE       CLEAR     60  37  42 S3        29.89R                  
SHERIDAN       CLEAR     63  43  48 SW9       29.84R                  
BUFFALO WY     CLEAR     68  33  27 SW8       29.94R                  
CODY           CLEAR     73  34  23 SW7       29.92R                  
YELLOWSTONE LA   N/A     52  31  44 W3        30.18R                  
IDAHO FALLS    CLEAR     73  35  25 SE7       29.91R                  
SALMON         MOCLDY    73  37  27 CALM      29.76S                  
BOISE          CLEAR     79  41  25 CALM      29.75R                  
SPOKANE        CLOUDY    68  43  40 SW7       29.75F                  
$$

REGIONAL REPORTS...ALBERTA
  
CITY           SKY/WX    TMP DP  RH WIND       PRES   REMARKS
$$

REGIONAL REPORTS...SASKATCHEWAN
  
CITY           SKY/WX    TMP DP  RH WIND       PRES   REMARKS
$$

Return to Home page


Western Regional Climate Center, wrcc@dri.edu